Time,TemperatureF,DewpointF,PressureIn,WindDirection,WindDirectionDegrees,WindSpeedMPH,WindSpeedGustMPH,Humidity,HourlyPrecipIn,Conditions,Clouds,dailyrainin,SolarRadiationWatts/m^2,SoftwareType,DateUTC
2013-05-05 00:01:00,48.9,36.1,30.95,NNE,13,4.0,10.0,61,0.00,,,0.00,0.00,VWS V14.00,2013-05-05 06:01:00,
2013-05-05 00:06:00,49.0,36.2,30.95,NNE,29,1.0,1.0,61,0.00,,,0.00,0.00,VWS V14.00,2013-05-05 06:06:00,
2013-05-05 00:11:00,49.0,36.2,30.95,NNE,29,1.0,1.0,61,0.00,,,0.00,0.00,VWS V14.00,2013-05-05 06:11:00,
2013-05-05 00:16:00,48.5,36.1,30.95,NNE,29,2.0,4.0,62,0.00,,,0.00,0.00,VWS V14.00,2013-05-05 06:16:00,
2013-05-05 00:21:00,48.4,36.0,30.95,North,11,0.0,2.0,62,0.00,,,0.00,0.00,VWS V14.00,2013-05-05 06:21:00,
2013-05-05 00:26:00,48.4,36.0,30.95,NNE,17,0.0,4.0,62,0.00,,,0.00,0.00,VWS V14.00,2013-05-05 06:26:00,
2013-05-05 00:31:00,48.2,35.8,30.95,NNE,17,0.0,4.0,62,0.00,,,0.00,0.00,VWS V14.00,2013-05-05 06:31:00,
2013-05-05 00:36:00,48.1,36.1,30.95,NNE,17,0.0,0.0,63,0.00,,,0.00,0.00,VWS V14.00,2013-05-05 06:36:00,
2013-05-05 00:41:00,48.0,36.0,30.95,NNE,17,2.0,3.0,63,0.00,,,0.00,0.00,VWS V14.00,2013-05-05 06:41:00,
2013-05-05 00:46:00,47.9,35.9,30.95,NNE,14,2.0,5.0,63,0.00,,,0.00,0.00,VWS V14.00,2013-05-05 06:46:00,
2013-05-05 00:51:00,47.9,35.9,30.95,NE,37,0.0,2.0,63,0.00,,,0.00,0.00,VWS V14.00,2013-05-05 06:51:00,
2013-05-05 00:56:00,47.7,35.7,30.95,NE,37,0.0,5.0,63,0.00,,,0.00,0.00,VWS V14.00,2013-05-05 06:56:00,
2013-05-05 01:01:00,47.7,35.7,30.95,NNE,30,3.0,7.0,63,0.00,,,0.00,0.00,VWS V14.00,2013-05-05 07:01:00,
2013-05-05 01:06:00,47.8,35.4,30.94,NE,43,2.0,4.0,62,0.00,,,0.00,0.00,VWS V14.00,2013-05-05 07:06:00,
2013-05-05 01:11:00,47.9,35.5,30.94,NE,36,0.0,5.0,62,0.00,,,0.00,0.00,VWS V14.00,2013-05-05 07:11:00,
2013-05-05 01:16:00,47.8,35.4,30.94,NE,40,0.0,5.0,62,0.00,,,0.00,0.00,VWS V14.00,2013-05-05 07:16:00,
2013-05-05 01:21:00,47.6,35.2,30.94,NE,40,0.0,0.0,62,0.00,,,0.00,0.00,VWS V14.00,2013-05-05 07:21:00,
2013-05-05 01:26:00,47.3,35.0,30.95,NE,40,0.0,2.0,62,0.00,,,0.00,0.00,VWS V14.00,2013-05-05 07:26:00,
2013-05-05 01:31:00,47.0,35.1,30.95,NE,40,0.0,3.0,63,0.00,,,0.00,0.00,VWS V14.00,2013-05-05 07:31:00,
2013-05-05 01:36:00,46.8,34.9,30.95,NE,40,0.0,0.0,63,0.00,,,0.00,0.00,VWS V14.00,2013-05-05 07:36:00,
2013-05-05 01:41:00,46.4,34.5,30.95,NE,40,0.0,1.0,63,0.00,,,0.00,0.00,VWS V14.00,2013-05-05 07:41:00,
2013-05-05 01:46:00,45.3,33.9,30.95,SE,129,0.0,3.0,64,0.00,,,0.00,0.00,VWS V14.00,2013-05-05 07:46:00,
2013-05-05 01:51:00,44.7,34.0,30.95,SE,130,0.0,0.0,66,0.00,,,0.00,0.00,VWS V14.00,2013-05-05 07:51:00,
2013-05-05 01:56:00,44.2,33.6,30.95,SE,130,0.0,3.0,66,0.00,,,0.00,0.00,VWS V14.00,2013-05-05 07:56:00,
2013-05-05 02:01:00,43.9,33.3,30.95,SE,130,0.0,3.0,66,0.00,,,0.00,0.00,VWS V14.00,2013-05-05 08:01:00,
2013-05-05 02:06:00,43.6,33.4,30.95,SE,130,0.0,0.0,67,0.00,,,0.00,0.00,VWS V14.00,2013-05-05 08:06:00,
2013-05-05 02:11:00,43.2,33.4,30.96,SE,130,1.0,2.0,68,0.00,,,0.00,0.00,VWS V14.00,2013-05-05 08:11:00,
2013-05-05 02:16:00,42.7,33.2,30.96,SE,130,0.0,2.0,69,0.00,,,0.00,0.00,VWS V14.00,2013-05-05 08:16:00,
2013-05-05 02:21:00,42.4,33.3,30.96,SE,130,2.0,3.0,70,0.00,,,0.00,0.00,VWS V14.00,2013-05-05 08:21:00,
2013-05-05 02:26:00,42.2,33.1,30.96,SE,130,0.0,3.0,70,0.00,,,0.00,0.00,VWS V14.00,2013-05-05 08:26:00,
2013-05-05 02:31:00,41.9,32.5,30.97,SE,131,0.0,3.0,69,0.00,,,0.00,0.00,VWS V14.00,2013-05-05 08:31:00,
2013-05-05 02:36:00,41.4,32.4,30.97,SE,130,0.0,0.0,70,0.00,,,0.00,0.00,VWS V14.00,2013-05-05 08:36:00,
2013-05-05 02:41:00,41.0,33.0,30.97,SE,131,0.0,2.0,73,0.00,,,0.00,0.00,VWS V14.00,2013-05-05 08:41:00,
2013-05-05 02:46:00,40.9,32.9,30.97,SE,131,0.0,2.0,73,0.00,,,0.00,0.00,VWS V14.00,2013-05-05 08:46:00,
2013-05-05 02:51:00,40.6,32.6,30.97,SE,131,0.0,0.0,73,0.00,,,0.00,0.00,VWS V14.00,2013-05-05 08:51:00,
2013-05-05 02:56:00,40.4,32.8,30.97,SE,131,0.0,0.0,74,0.00,,,0.00,0.00,VWS V14.00,2013-05-05 08:56:00,
2013-05-05 03:01:00,40.1,32.5,30.97,SE,131,3.0,4.0,74,0.00,,,0.00,0.00,VWS V14.00,2013-05-05 09:01:00,
2013-05-05 03:06:00,39.4,32.2,30.98,SE,130,0.0,0.0,75,0.00,,,0.00,0.00,VWS V14.00,2013-05-05 09:06:00,
2013-05-05 03:11:00,38.9,32.0,30.98,SE,131,0.0,0.0,76,0.00,,,0.00,0.00,VWS V14.00,2013-05-05 09:11:00,
2013-05-05 03:16:00,38.4,31.5,30.98,SE,131,0.0,0.0,76,0.00,,,0.00,0.00,VWS V14.00,2013-05-05 09:16:00,
2013-05-05 03:21:00,37.9,31.4,30.98,SE,131,0.0,2.0,77,0.00,,,0.00,0.00,VWS V14.00,2013-05-05 09:21:00,
2013-05-05 03:26:00,37.5,31.6,30.98,SE,131,0.0,2.0,79,0.00,,,0.00,0.00,VWS V14.00,2013-05-05 09:26:00,
2013-05-05 03:31:00,37.3,31.7,30.99,SE,130,1.0,2.0,80,0.00,,,0.00,0.00,VWS V14.00,2013-05-05 09:31:00,
2013-05-05 03:36:00,37.4,31.8,30.99,SE,131,0.0,0.0,80,0.00,,,0.00,0.00,VWS V14.00,2013-05-05 09:36:00,
2013-05-05 03:41:00,37.1,31.2,30.99,SE,131,0.0,0.0,79,0.00,,,0.00,0.00,VWS V14.00,2013-05-05 09:41:00,
2013-05-05 03:46:00,37.1,31.5,30.99,SE,131,0.0,0.0,80,0.00,,,0.00,0.00,VWS V14.00,2013-05-05 09:46:00,
2013-05-05 03:51:00,37.1,31.5,30.98,SE,130,0.0,0.0,80,0.00,,,0.00,0.00,VWS V14.00,2013-05-05 09:51:00,
2013-05-05 03:56:00,37.2,31.6,30.99,SE,131,0.0,1.0,80,0.00,,,0.00,0.00,VWS V14.00,2013-05-05 09:56:00,
2013-05-05 04:01:00,37.2,31.9,30.99,SE,131,0.0,1.0,81,0.00,,,0.00,0.00,VWS V14.00,2013-05-05 10:01:00,
2013-05-05 04:06:00,37.3,32.0,30.97,SE,130,0.0,0.0,81,0.00,,,0.00,0.00,VWS V14.00,2013-05-05 10:06:00,
2013-05-05 04:11:00,37.4,32.1,30.97,SE,131,0.0,0.0,81,0.00,,,0.00,0.00,VWS V14.00,2013-05-05 10:11:00,
2013-05-05 04:16:00,37.4,32.1,30.97,SE,131,0.0,1.0,81,0.00,,,0.00,0.00,VWS V14.00,2013-05-05 10:16:00,
2013-05-05 04:21:00,37.4,32.1,30.97,SE,131,0.0,0.0,81,0.00,,,0.00,0.00,VWS V14.00,2013-05-05 10:21:00,
2013-05-05 04:26:00,37.5,32.2,30.97,SE,130,0.0,0.0,81,0.00,,,0.00,0.00,VWS V14.00,2013-05-05 10:26:00,
2013-05-05 04:31:00,37.5,31.6,30.97,SE,131,2.0,3.0,79,0.00,,,0.00,0.00,VWS V14.00,2013-05-05 10:31:00,
2013-05-05 04:36:00,36.9,30.7,30.97,SE,131,0.0,0.0,78,0.00,,,0.00,0.00,VWS V14.00,2013-05-05 10:36:00,
2013-05-05 04:41:00,36.6,30.4,30.97,SE,131,0.0,1.0,78,0.00,,,0.00,0.00,VWS V14.00,2013-05-05 10:41:00,
2013-05-05 04:46:00,36.0,30.1,30.98,SE,130,0.0,1.0,79,0.00,,,0.00,0.00,VWS V14.00,2013-05-05 10:46:00,
2013-05-05 04:51:00,35.9,31.0,30.98,SE,131,0.0,0.0,82,0.00,,,0.00,0.00,VWS V14.00,2013-05-05 10:51:00,
2013-05-05 04:56:00,36.0,31.4,30.97,SE,130,0.0,0.0,83,0.00,,,0.00,0.00,VWS V14.00,2013-05-05 10:56:00,
2013-05-05 05:01:00,36.2,31.5,30.97,SE,131,0.0,0.0,83,0.00,,,0.00,0.00,VWS V14.00,2013-05-05 11:01:00,
2013-05-05 05:06:00,36.6,31.9,30.97,SE,131,0.0,0.0,83,0.00,,,0.00,0.00,VWS V14.00,2013-05-05 11:06:00,
2013-05-05 05:11:00,36.6,31.6,30.97,SE,131,0.0,0.0,82,0.00,,,0.00,0.00,VWS V14.00,2013-05-05 11:11:00,
2013-05-05 05:16:00,36.6,31.6,30.97,SE,131,0.0,0.0,82,0.00,,,0.00,0.00,VWS V14.00,2013-05-05 11:16:00,
2013-05-05 05:21:00,36.6,31.6,30.97,SE,130,0.0,0.0,82,0.00,,,0.00,0.00,VWS V14.00,2013-05-05 11:21:00,
2013-05-05 05:26:00,36.6,31.6,30.97,SE,131,1.0,1.0,82,0.00,,,0.00,0.00,VWS V14.00,2013-05-05 11:26:00,
2013-05-05 05:31:00,36.5,31.2,30.97,SE,131,1.0,3.0,81,0.00,,,0.00,0.00,VWS V14.00,2013-05-05 11:31:00,
2013-05-05 05:36:00,36.1,29.9,30.98,SE,130,0.0,0.0,78,0.00,,,0.00,0.00,VWS V14.00,2013-05-05 11:36:00,
2013-05-05 05:41:00,35.6,29.7,30.98,SE,131,0.0,2.0,79,0.00,,,0.00,0.00,VWS V14.00,2013-05-05 11:41:00,
2013-05-05 05:46:00,35.2,30.0,30.98,SE,131,0.0,2.0,81,0.00,,,0.00,0.00,VWS V14.00,2013-05-05 11:46:00,
2013-05-05 05:51:00,34.8,29.9,30.98,SE,130,0.0,0.0,82,0.00,,,0.00,0.00,VWS V14.00,2013-05-05 11:51:00,
2013-05-05 05:56:00,34.6,30.0,30.98,SE,131,0.0,0.0,83,0.00,,,0.00,0.00,VWS V14.00,2013-05-05 11:56:00,
2013-05-05 06:01:00,34.4,30.1,30.99,SE,131,0.0,0.0,84,0.00,,,0.00,0.00,VWS V14.00,2013-05-05 12:01:00,
2013-05-05 06:06:00,34.4,29.8,30.99,SE,131,0.0,0.0,83,0.00,,,0.00,0.00,VWS V14.00,2013-05-05 12:06:00,
2013-05-05 06:11:00,34.2,29.6,30.99,SE,130,0.0,0.0,83,0.00,,,0.00,0.00,VWS V14.00,2013-05-05 12:11:00,
2013-05-05 06:16:00,34.0,29.7,30.99,SE,130,0.0,0.0,84,0.00,,,0.00,0.00,VWS V14.00,2013-05-05 12:16:00,
2013-05-05 06:21:00,33.6,29.0,30.99,SE,131,1.0,2.0,83,0.00,,,0.00,5.00,VWS V14.00,2013-05-05 12:21:00,
2013-05-05 06:26:00,33.3,29.0,31.00,SE,130,0.0,2.0,84,0.00,,,0.00,7.00,VWS V14.00,2013-05-05 12:26:00,
2013-05-05 06:31:00,33.2,29.2,31.00,SE,131,0.0,2.0,85,0.00,,,0.00,9.00,VWS V14.00,2013-05-05 12:31:00,
2013-05-05 06:36:00,33.3,29.6,31.01,SE,131,1.0,2.0,86,0.00,,,0.00,11.00,VWS V14.00,2013-05-05 12:36:00,
2013-05-05 06:41:00,33.4,30.0,31.00,SE,131,2.0,2.0,87,0.00,,,0.00,12.00,VWS V14.00,2013-05-05 12:41:00,
2013-05-05 06:46:00,33.7,30.2,30.99,SE,130,1.0,2.0,87,0.00,,,0.00,14.00,VWS V14.00,2013-05-05 12:46:00,
2013-05-05 06:51:00,34.0,30.5,30.99,SE,131,1.0,1.0,87,0.00,,,0.00,19.00,VWS V14.00,2013-05-05 12:51:00,
2013-05-05 06:56:00,34.1,30.4,30.99,SE,131,0.0,2.0,86,0.00,,,0.00,26.00,VWS V14.00,2013-05-05 12:56:00,
2013-05-05 07:01:00,34.1,30.4,30.99,SE,130,0.0,2.0,86,0.00,,,0.00,25.00,VWS V14.00,2013-05-05 13:01:00,
2013-05-05 07:06:00,34.3,30.6,31.00,SE,130,0.0,0.0,86,0.00,,,0.00,25.00,VWS V14.00,2013-05-05 13:06:00,
2013-05-05 07:11:00,34.4,30.6,31.00,SE,131,0.0,0.0,86,0.00,,,0.00,28.00,VWS V14.00,2013-05-05 13:11:00,
2013-05-05 07:16:00,34.4,30.9,31.00,SE,131,0.0,0.0,87,0.00,,,0.00,39.00,VWS V14.00,2013-05-05 13:16:00,
2013-05-05 07:21:00,34.7,31.2,30.99,SE,131,0.0,0.0,87,0.00,,,0.00,30.00,VWS V14.00,2013-05-05 13:21:00,
2013-05-05 07:26:00,35.1,31.9,30.99,SE,130,1.0,2.0,88,0.00,,,0.00,44.00,VWS V14.00,2013-05-05 13:26:00,
2013-05-05 07:31:00,35.7,32.2,30.99,SE,131,0.0,2.0,87,0.00,,,0.00,56.00,VWS V14.00,2013-05-05 13:31:00,
2013-05-05 07:36:00,36.0,32.5,30.99,SE,130,2.0,3.0,87,0.00,,,0.00,32.00,VWS V14.00,2013-05-05 13:36:00,
2013-05-05 07:41:00,36.2,32.7,30.99,SE,130,0.0,3.0,87,0.00,,,0.00,32.00,VWS V14.00,2013-05-05 13:41:00,
2013-05-05 07:46:00,36.5,33.0,30.99,SE,131,0.0,3.0,87,0.00,,,0.00,30.00,VWS V14.00,2013-05-05 13:46:00,
2013-05-05 07:51:00,36.9,33.4,30.98,SE,131,2.0,4.0,87,0.00,,,0.00,49.00,VWS V14.00,2013-05-05 13:51:00,
2013-05-05 07:56:00,37.3,33.8,30.98,SE,131,0.0,4.0,87,0.00,,,0.00,62.00,VWS V14.00,2013-05-05 13:56:00,
2013-05-05 08:01:00,37.7,34.2,30.98,SE,131,3.0,4.0,87,0.00,,,0.00,199.00,VWS V14.00,2013-05-05 14:01:00,
2013-05-05 08:06:00,38.1,34.6,30.99,SE,131,2.0,3.0,87,0.00,,,0.00,239.00,VWS V14.00,2013-05-05 14:06:00,
2013-05-05 08:11:00,38.7,34.9,30.99,SE,130,2.0,4.0,86,0.00,,,0.00,279.00,VWS V14.00,2013-05-05 14:11:00,
2013-05-05 08:16:00,39.3,35.2,30.99,SE,131,1.0,4.0,85,0.00,,,0.00,294.00,VWS V14.00,2013-05-05 14:16:00,
2013-05-05 08:21:00,40.1,35.7,30.98,SE,131,0.0,3.0,84,0.00,,,0.00,311.00,VWS V14.00,2013-05-05 14:21:00,
2013-05-05 08:26:00,40.9,35.5,30.98,SE,131,0.0,3.0,81,0.00,,,0.00,327.00,VWS V14.00,2013-05-05 14:26:00,
2013-05-05 08:31:00,41.7,36.0,30.97,SE,130,1.0,3.0,80,0.00,,,0.00,341.00,VWS V14.00,2013-05-05 14:31:00,
2013-05-05 08:36:00,42.3,36.3,30.97,SE,131,0.0,0.0,79,0.00,,,0.00,357.00,VWS V14.00,2013-05-05 14:36:00,
2013-05-05 08:41:00,43.0,36.6,30.97,SE,131,1.0,2.0,78,0.00,,,0.00,373.00,VWS V14.00,2013-05-05 14:41:00,
2013-05-05 08:46:00,43.7,36.6,30.95,SE,130,0.0,2.0,76,0.00,,,0.00,385.00,VWS V14.00,2013-05-05 14:46:00,
2013-05-05 08:51:00,44.5,37.4,30.95,SE,131,0.0,0.0,76,0.00,,,0.00,401.00,VWS V14.00,2013-05-05 14:51:00,
2013-05-05 08:56:00,45.0,36.9,30.95,SE,130,0.0,3.0,73,0.00,,,0.00,417.00,VWS V14.00,2013-05-05 14:56:00,
2013-05-05 09:01:00,45.6,37.5,30.94,SE,131,1.0,3.0,73,0.00,,,0.00,432.00,VWS V14.00,2013-05-05 15:01:00,
2013-05-05 09:06:00,46.3,37.1,30.96,SE,130,0.0,0.0,70,0.00,,,0.00,446.00,VWS V14.00,2013-05-05 15:06:00,
2013-05-05 09:11:00,46.9,36.9,30.95,SE,131,0.0,2.0,68,0.00,,,0.00,461.00,VWS V14.00,2013-05-05 15:11:00,
2013-05-05 09:16:00,47.6,38.0,30.95,SE,131,0.0,2.0,69,0.00,,,0.00,431.00,VWS V14.00,2013-05-05 15:16:00,
2013-05-05 09:21:00,48.3,38.6,30.95,SE,130,4.0,4.0,69,0.00,,,0.00,487.00,VWS V14.00,2013-05-05 15:21:00,
2013-05-05 09:26:00,48.9,38.1,30.94,SE,129,0.0,5.0,66,0.00,,,0.00,499.00,VWS V14.00,2013-05-05 15:26:00,
2013-05-05 09:31:00,49.2,37.2,30.94,SE,128,0.0,5.0,63,0.00,,,0.00,513.00,VWS V14.00,2013-05-05 15:31:00,
2013-05-05 09:36:00,49.6,37.5,30.94,North,360,0.0,2.0,63,0.00,,,0.00,529.00,VWS V14.00,2013-05-05 15:36:00,
2013-05-05 09:41:00,49.9,37.8,30.93,North,360,0.0,4.0,63,0.00,,,0.00,543.00,VWS V14.00,2013-05-05 15:41:00,
2013-05-05 09:46:00,50.2,37.7,30.93,North,360,0.0,4.0,62,0.00,,,0.00,555.00,VWS V14.00,2013-05-05 15:46:00,
2013-05-05 09:51:00,50.5,38.4,30.93,North,360,0.0,0.0,63,0.00,,,0.00,570.00,VWS V14.00,2013-05-05 15:51:00,
2013-05-05 09:56:00,51.0,38.0,30.92,North,360,0.0,6.0,61,0.00,,,0.00,582.00,VWS V14.00,2013-05-05 15:56:00,
2013-05-05 10:01:00,51.4,38.4,30.92,North,360,3.0,6.0,61,0.00,,,0.00,594.00,VWS V14.00,2013-05-05 16:01:00,
2013-05-05 10:06:00,51.6,38.2,30.92,North,350,0.0,3.0,60,0.00,,,0.00,608.00,VWS V14.00,2013-05-05 16:06:00,
2013-05-05 10:11:00,51.8,38.4,30.93,North,355,2.0,7.0,60,0.00,,,0.00,621.00,VWS V14.00,2013-05-05 16:11:00,
2013-05-05 10:16:00,51.9,38.9,30.92,NNW,346,4.0,7.0,61,0.00,,,0.00,633.00,VWS V14.00,2013-05-05 16:16:00,
2013-05-05 10:21:00,52.1,38.2,30.92,NNW,335,3.0,4.0,59,0.00,,,0.00,647.00,VWS V14.00,2013-05-05 16:21:00,
2013-05-05 10:26:00,52.3,38.4,30.92,NW,319,2.0,6.0,59,0.00,,,0.00,659.00,VWS V14.00,2013-05-05 16:26:00,
2013-05-05 10:31:00,52.5,39.0,30.91,NW,313,3.0,6.0,60,0.00,,,0.00,668.00,VWS V14.00,2013-05-05 16:31:00,
2013-05-05 10:36:00,52.7,38.8,30.91,NNW,342,3.0,5.0,59,0.00,,,0.00,680.00,VWS V14.00,2013-05-05 16:36:00,
2013-05-05 10:41:00,53.1,39.2,30.90,NNW,342,0.0,5.0,59,0.00,,,0.00,691.00,VWS V14.00,2013-05-05 16:41:00,
2013-05-05 10:46:00,53.6,39.2,30.90,NNW,344,1.0,5.0,58,0.00,,,0.00,703.00,VWS V14.00,2013-05-05 16:46:00,
2013-05-05 10:51:00,53.9,38.6,30.90,North,360,5.0,5.0,56,0.00,,,0.00,712.00,VWS V14.00,2013-05-05 16:51:00,
2013-05-05 10:56:00,54.2,39.8,30.90,North,5,1.0,5.0,58,0.00,,,0.00,724.00,VWS V14.00,2013-05-05 16:56:00,
2013-05-05 11:01:00,54.6,38.8,30.89,North,355,0.0,7.0,55,0.00,,,0.00,735.00,VWS V14.00,2013-05-05 17:01:00,
2013-05-05 11:06:00,55.0,38.2,30.88,North,350,2.0,5.0,53,0.00,,,0.00,742.00,VWS V14.00,2013-05-05 17:06:00,
2013-05-05 11:11:00,55.3,38.5,30.89,North,350,2.0,5.0,53,0.00,,,0.00,752.00,VWS V14.00,2013-05-05 17:11:00,
2013-05-05 11:16:00,55.5,39.1,30.88,North,355,6.0,8.0,54,0.00,,,0.00,740.00,VWS V14.00,2013-05-05 17:16:00,
2013-05-05 11:21:00,55.7,39.8,30.88,NNW,337,2.0,4.0,55,0.00,,,0.00,737.00,VWS V14.00,2013-05-05 17:21:00,
2013-05-05 11:26:00,55.8,39.4,30.88,NNW,333,1.0,5.0,54,0.00,,,0.00,747.00,VWS V14.00,2013-05-05 17:26:00,
2013-05-05 11:31:00,56.3,39.9,30.87,NNW,333,0.0,5.0,54,0.00,,,0.00,768.00,VWS V14.00,2013-05-05 17:31:00,
2013-05-05 11:36:00,56.5,39.6,30.86,NW,320,0.0,3.0,53,0.00,,,0.00,775.00,VWS V14.00,2013-05-05 17:36:00,
2013-05-05 11:41:00,56.7,41.2,30.86,NW,320,1.0,5.0,56,0.00,,,0.00,803.00,VWS V14.00,2013-05-05 17:41:00,
2013-05-05 11:46:00,56.9,40.4,30.85,NNW,340,6.0,7.0,54,0.00,,,0.00,765.00,VWS V14.00,2013-05-05 17:46:00,
2013-05-05 11:51:00,57.3,41.3,30.86,North,355,1.0,1.0,55,0.00,,,0.00,793.00,VWS V14.00,2013-05-05 17:51:00,
2013-05-05 11:56:00,57.7,40.2,30.85,North,355,4.0,8.0,52,0.00,,,0.00,823.00,VWS V14.00,2013-05-05 17:56:00,
2013-05-05 12:01:00,58.0,41.0,30.85,North,350,0.0,8.0,53,0.00,,,0.00,830.00,VWS V14.00,2013-05-05 18:01:00,
2013-05-05 12:06:00,58.4,39.8,30.85,WNW,300,5.0,6.0,50,0.00,,,0.00,835.00,VWS V14.00,2013-05-05 18:06:00,
2013-05-05 12:11:00,58.6,39.0,30.85,NNW,334,5.0,7.0,48,0.00,,,0.00,840.00,VWS V14.00,2013-05-05 18:11:00,
2013-05-05 12:16:00,58.8,39.7,30.84,NW,319,6.0,9.0,49,0.00,,,0.00,846.00,VWS V14.00,2013-05-05 18:16:00,
2013-05-05 12:21:00,59.0,38.8,30.84,North,355,0.0,4.0,47,0.00,,,0.00,851.00,VWS V14.00,2013-05-05 18:21:00,
2013-05-05 12:26:00,59.1,40.0,30.84,North,355,2.0,6.0,49,0.00,,,0.00,856.00,VWS V14.00,2013-05-05 18:26:00,
2013-05-05 12:31:00,60.1,40.4,30.83,NNW,336,5.0,6.0,48,0.00,,,0.00,861.00,VWS V14.00,2013-05-05 18:31:00,
2013-05-05 12:36:00,60.6,40.8,30.83,NNW,337,0.0,2.0,48,0.00,,,0.00,865.00,VWS V14.00,2013-05-05 18:36:00,
2013-05-05 12:41:00,61.2,39.7,30.82,NNW,337,0.0,2.0,45,0.00,,,0.00,868.00,VWS V14.00,2013-05-05 18:41:00,
2013-05-05 12:46:00,61.5,41.7,30.82,WNW,294,3.0,7.0,48,0.00,,,0.00,872.00,VWS V14.00,2013-05-05 18:46:00,
2013-05-05 12:51:00,61.5,40.0,30.81,NNW,344,6.0,9.0,45,0.00,,,0.00,875.00,VWS V14.00,2013-05-05 18:51:00,
2013-05-05 12:56:00,61.4,39.9,30.81,NNW,334,2.0,10.0,45,0.00,,,0.00,875.00,VWS V14.00,2013-05-05 18:56:00,
2013-05-05 13:01:00,61.8,39.7,30.80,North,9,0.0,10.0,44,0.00,,,0.00,877.00,VWS V14.00,2013-05-05 19:01:00,
2013-05-05 13:06:00,62.4,41.4,30.82,NW,322,5.0,5.0,46,0.00,,,0.00,847.00,VWS V14.00,2013-05-05 19:06:00,
2013-05-05 13:11:00,62.5,40.3,30.81,NNW,331,7.0,10.0,44,0.00,,,0.00,877.00,VWS V14.00,2013-05-05 19:11:00,
2013-05-05 13:16:00,62.5,40.3,30.82,NNW,336,4.0,10.0,44,0.00,,,0.00,854.00,VWS V14.00,2013-05-05 19:16:00,
2013-05-05 13:21:00,63.0,41.9,30.81,NW,322,5.0,9.0,46,0.00,,,0.00,846.00,VWS V14.00,2013-05-05 19:21:00,
2013-05-05 13:26:00,63.2,42.1,30.81,West,273,0.0,10.0,46,0.00,,,0.00,861.00,VWS V14.00,2013-05-05 19:26:00,
2013-05-05 13:32:00,63.3,42.2,30.81,NNW,336,6.0,10.0,46,0.00,,,0.00,835.00,VWS V14.00,2013-05-05 19:32:00,
2013-05-05 13:36:00,63.5,42.4,30.79,WNW,296,4.0,7.0,46,0.00,,,0.00,846.00,VWS V14.00,2013-05-05 19:36:00,
2013-05-05 13:42:00,63.9,42.2,30.79,NW,314,10.0,13.0,45,0.00,,,0.00,849.00,VWS V14.00,2013-05-05 19:42:00,
2013-05-05 13:47:00,64.3,44.8,30.78,West,279,8.0,13.0,49,0.00,,,0.00,842.00,VWS V14.00,2013-05-05 19:47:00,
2013-05-05 13:52:00,64.5,41.5,30.78,NNW,346,6.0,10.0,43,0.00,,,0.00,870.00,VWS V14.00,2013-05-05 19:52:00,
2013-05-05 13:57:00,64.6,41.6,30.78,North,360,5.0,10.0,43,0.00,,,0.00,849.00,VWS V14.00,2013-05-05 19:57:00,
2013-05-05 14:02:00,64.7,41.7,30.78,WNW,302,5.0,13.0,43,0.00,,,0.00,874.00,VWS V14.00,2013-05-05 20:02:00,
2013-05-05 14:07:00,65.0,42.0,30.79,NW,309,8.0,10.0,43,0.00,,,0.00,870.00,VWS V14.00,2013-05-05 20:07:00,
2013-05-05 14:12:00,65.6,40.7,30.79,NNW,333,7.0,16.0,40,0.00,,,0.00,868.00,VWS V14.00,2013-05-05 20:12:00,
2013-05-05 14:17:00,65.9,40.9,30.78,NNE,14,6.0,16.0,40,0.00,,,0.00,865.00,VWS V14.00,2013-05-05 20:17:00,
2013-05-05 14:22:00,66.2,43.7,30.79,WNW,302,5.0,9.0,44,0.00,,,0.00,861.00,VWS V14.00,2013-05-05 20:22:00,
2013-05-05 14:27:00,66.2,39.9,30.79,North,360,4.0,13.0,38,0.00,,,0.00,856.00,VWS V14.00,2013-05-05 20:27:00,
2013-05-05 14:32:00,66.7,40.3,30.77,NNW,329,7.0,15.0,38,0.00,,,0.00,853.00,VWS V14.00,2013-05-05 20:32:00,
2013-05-05 14:37:00,66.9,41.2,30.76,West,271,8.0,9.0,39,0.00,,,0.00,847.00,VWS V14.00,2013-05-05 20:37:00,
2013-05-05 14:42:00,67.2,40.1,30.77,North,360,12.0,20.0,37,0.00,,,0.00,842.00,VWS V14.00,2013-05-05 20:42:00,
2013-05-05 14:47:00,67.4,40.2,30.77,NW,324,6.0,20.0,37,0.00,,,0.00,838.00,VWS V14.00,2013-05-05 20:47:00,
2013-05-05 14:52:00,67.6,39.7,30.76,WNW,302,4.0,11.0,36,0.00,,,0.00,835.00,VWS V14.00,2013-05-05 20:52:00,
2013-05-05 14:57:00,67.9,39.3,30.76,NNW,333,6.0,11.0,35,0.00,,,0.00,828.00,VWS V14.00,2013-05-05 20:57:00,
2013-05-05 15:02:00,68.0,40.1,30.76,NNW,327,12.0,14.0,36,0.00,,,0.00,823.00,VWS V14.00,2013-05-05 21:02:00,
2013-05-05 15:07:00,68.4,39.7,30.77,NW,325,7.0,10.0,35,0.00,,,0.00,814.00,VWS V14.00,2013-05-05 21:07:00,
2013-05-05 15:12:00,68.5,39.0,30.76,WNW,294,9.0,18.0,34,0.00,,,0.00,807.00,VWS V14.00,2013-05-05 21:12:00,
2013-05-05 15:17:00,68.7,39.2,30.75,WNW,287,8.0,18.0,34,0.00,,,0.00,802.00,VWS V14.00,2013-05-05 21:17:00,
2013-05-05 15:22:00,69.0,39.5,30.75,WNW,298,5.0,10.0,34,0.00,,,0.00,795.00,VWS V14.00,2013-05-05 21:22:00,
2013-05-05 15:27:00,69.2,39.7,30.75,WNW,303,4.0,14.0,34,0.00,,,0.00,788.00,VWS V14.00,2013-05-05 21:27:00,
2013-05-05 15:32:00,69.5,41.4,30.75,NW,317,9.0,14.0,36,0.00,,,0.00,777.00,VWS V14.00,2013-05-05 21:32:00,
2013-05-05 15:37:00,69.8,39.4,30.75,NW,323,6.0,12.0,33,0.00,,,0.00,770.00,VWS V14.00,2013-05-05 21:37:00,
2013-05-05 15:42:00,69.8,39.4,30.75,NW,304,12.0,13.0,33,0.00,,,0.00,759.00,VWS V14.00,2013-05-05 21:42:00,
2013-05-05 15:47:00,69.8,39.4,30.74,NW,306,11.0,15.0,33,0.00,,,0.00,749.00,VWS V14.00,2013-05-05 21:47:00,
2013-05-05 15:52:00,70.2,40.5,30.74,North,355,10.0,13.0,34,0.00,,,0.00,742.00,VWS V14.00,2013-05-05 21:52:00,
2013-05-05 15:57:00,70.4,38.3,30.74,NNW,340,9.0,16.0,31,0.00,,,0.00,733.00,VWS V14.00,2013-05-05 21:57:00,
2013-05-05 16:02:00,70.2,39.0,30.74,NW,313,6.0,16.0,32,0.00,,,0.00,722.00,VWS V14.00,2013-05-05 22:02:00,
2013-05-05 16:07:00,70.3,39.9,30.73,NW,325,5.0,9.0,33,0.00,,,0.00,712.00,VWS V14.00,2013-05-05 22:07:00,
2013-05-05 16:12:00,70.5,39.2,30.72,NNW,348,7.0,13.0,32,0.00,,,0.00,701.00,VWS V14.00,2013-05-05 22:12:00,
2013-05-05 16:17:00,70.8,39.5,30.72,NNW,327,7.0,15.0,32,0.00,,,0.00,689.00,VWS V14.00,2013-05-05 22:17:00,
2013-05-05 16:22:00,70.8,38.7,30.72,NW,321,11.0,11.0,31,0.00,,,0.00,680.00,VWS V14.00,2013-05-05 22:22:00,
2013-05-05 16:27:00,70.9,38.8,30.72,NNW,346,10.0,11.0,31,0.00,,,0.00,671.00,VWS V14.00,2013-05-05 22:27:00,
2013-05-05 16:32:00,71.1,39.8,30.72,NNW,329,9.0,14.0,32,0.00,,,0.00,656.00,VWS V14.00,2013-05-05 22:32:00,
2013-05-05 16:37:00,71.0,38.0,30.72,NNW,329,8.0,13.0,30,0.00,,,0.00,647.00,VWS V14.00,2013-05-05 22:37:00,
2013-05-05 16:42:00,71.1,39.0,30.71,NNW,338,6.0,13.0,31,0.00,,,0.00,635.00,VWS V14.00,2013-05-05 22:42:00,
2013-05-05 16:47:00,71.1,39.8,30.71,NNW,333,6.0,13.0,32,0.00,,,0.00,624.00,VWS V14.00,2013-05-05 22:47:00,
2013-05-05 16:52:00,71.2,37.3,30.71,North,360,8.0,9.0,29,0.00,,,0.00,613.00,VWS V14.00,2013-05-05 22:52:00,
2013-05-05 16:57:00,71.3,37.4,30.70,NW,313,8.0,11.0,29,0.00,,,0.00,599.00,VWS V14.00,2013-05-05 22:57:00,
2013-05-05 17:02:00,71.3,38.3,30.70,NW,310,11.0,15.0,30,0.00,,,0.00,585.00,VWS V14.00,2013-05-05 23:02:00,
2013-05-05 17:07:00,71.5,37.6,30.71,NNW,334,10.0,11.0,29,0.00,,,0.00,575.00,VWS V14.00,2013-05-05 23:07:00,
2013-05-05 17:12:00,71.5,37.6,30.71,NW,326,11.0,15.0,29,0.00,,,0.00,564.00,VWS V14.00,2013-05-05 23:12:00,
2013-05-05 17:17:00,71.6,37.7,30.71,WNW,297,12.0,15.0,29,0.00,,,0.00,550.00,VWS V14.00,2013-05-05 23:17:00,
2013-05-05 17:22:00,71.5,36.7,30.71,NNW,337,9.0,11.0,28,0.00,,,0.00,540.00,VWS V14.00,2013-05-05 23:22:00,
2013-05-05 17:27:00,71.5,37.6,30.71,NW,323,10.0,14.0,29,0.00,,,0.00,526.00,VWS V14.00,2013-05-05 23:27:00,
2013-05-05 17:32:00,71.5,36.7,30.70,NNW,332,11.0,16.0,28,0.00,,,0.00,510.00,VWS V14.00,2013-05-05 23:32:00,
2013-05-05 17:37:00,71.6,38.6,30.70,NNW,346,12.0,12.0,30,0.00,,,0.00,494.00,VWS V14.00,2013-05-05 23:37:00,
2013-05-05 17:42:00,71.9,37.1,30.70,North,350,6.0,13.0,28,0.00,,,0.00,483.00,VWS V14.00,2013-05-05 23:42:00,
2013-05-05 17:47:00,71.8,37.9,30.70,NNW,334,12.0,19.0,29,0.00,,,0.00,466.00,VWS V14.00,2013-05-05 23:47:00,
2013-05-05 17:52:00,71.6,37.7,30.69,NW,324,12.0,15.0,29,0.00,,,0.00,450.00,VWS V14.00,2013-05-05 23:52:00,
2013-05-05 17:57:00,71.5,36.7,30.69,NNW,334,13.0,19.0,28,0.00,,,0.00,439.00,VWS V14.00,2013-05-05 23:57:00,
2013-05-05 18:02:00,71.5,37.6,30.69,NNW,336,8.0,19.0,29,0.00,,,0.00,424.00,VWS V14.00,2013-05-06 00:02:00,
2013-05-05 18:07:00,71.5,37.6,30.69,NW,325,12.0,17.0,29,0.00,,,0.00,408.00,VWS V14.00,2013-05-06 00:07:00,
2013-05-05 18:12:00,71.5,37.6,30.70,NW,321,10.0,17.0,29,0.00,,,0.00,397.00,VWS V14.00,2013-05-06 00:12:00,
2013-05-05 18:17:00,71.3,37.4,30.70,NNW,334,4.0,17.0,29,0.00,,,0.00,381.00,VWS V14.00,2013-05-06 00:17:00,
2013-05-05 18:22:00,71.3,37.4,30.69,NNW,337,7.0,12.0,29,0.00,,,0.00,367.00,VWS V14.00,2013-05-06 00:22:00,
2013-05-05 18:27:00,71.3,37.4,30.69,North,350,10.0,18.0,29,0.00,,,0.00,353.00,VWS V14.00,2013-05-06 00:27:00,
2013-05-05 18:32:00,71.2,36.5,30.70,NNW,333,9.0,18.0,28,0.00,,,0.00,341.00,VWS V14.00,2013-05-06 00:32:00,
2013-05-05 18:37:00,71.1,37.3,30.69,NW,321,14.0,14.0,29,0.00,,,0.00,330.00,VWS V14.00,2013-05-06 00:37:00,
2013-05-05 18:42:00,71.0,37.2,30.69,North,350,14.0,15.0,29,0.00,,,0.00,323.00,VWS V14.00,2013-05-06 00:42:00,
2013-05-05 18:47:00,70.8,37.0,30.69,NNW,335,7.0,15.0,29,0.00,,,0.00,313.00,VWS V14.00,2013-05-06 00:47:00,
2013-05-05 18:52:00,70.9,38.8,30.69,NNW,333,7.0,12.0,31,0.00,,,0.00,309.00,VWS V14.00,2013-05-06 00:52:00,
2013-05-05 18:57:00,70.9,38.0,30.69,NNW,336,12.0,15.0,30,0.00,,,0.00,295.00,VWS V14.00,2013-05-06 00:57:00,
2013-05-05 19:02:00,70.7,36.0,30.69,North,349,10.0,15.0,28,0.00,,,0.00,271.00,VWS V14.00,2013-05-06 01:02:00,
2013-05-05 19:07:00,70.5,36.7,30.67,NNW,343,11.0,14.0,29,0.00,,,0.00,257.00,VWS V14.00,2013-05-06 01:07:00,
2013-05-05 19:12:00,70.2,36.5,30.67,NNW,348,11.0,15.0,29,0.00,,,0.00,229.00,VWS V14.00,2013-05-06 01:12:00,
2013-05-05 19:17:00,70.0,37.2,30.67,NNW,344,7.0,15.0,30,0.00,,,0.00,202.00,VWS V14.00,2013-05-06 01:17:00,
2013-05-05 19:22:00,69.7,37.7,30.67,North,355,6.0,12.0,31,0.00,,,0.00,185.00,VWS V14.00,2013-05-06 01:22:00,
2013-05-05 19:27:00,69.4,37.5,30.67,North,350,9.0,16.0,31,0.00,,,0.00,174.00,VWS V14.00,2013-05-06 01:27:00,
2013-05-05 19:32:00,69.2,38.9,30.68,NNW,344,7.0,16.0,33,0.00,,,0.00,158.00,VWS V14.00,2013-05-06 01:32:00,
2013-05-05 19:37:00,68.8,37.8,30.68,NNW,346,8.0,12.0,32,0.00,,,0.00,144.00,VWS V14.00,2013-05-06 01:37:00,
2013-05-05 19:42:00,68.5,39.8,30.68,NNW,338,5.0,12.0,35,0.00,,,0.00,130.00,VWS V14.00,2013-05-06 01:42:00,
2013-05-05 19:47:00,68.0,38.6,30.68,NNW,342,3.0,12.0,34,0.00,,,0.00,121.00,VWS V14.00,2013-05-06 01:47:00,
2013-05-05 19:52:00,67.8,39.2,30.68,NNW,343,4.0,6.0,35,0.00,,,0.00,102.00,VWS V14.00,2013-05-06 01:52:00,
2013-05-05 19:57:00,67.4,40.2,30.68,NNW,342,2.0,6.0,37,0.00,,,0.00,90.00,VWS V14.00,2013-05-06 01:57:00,
2013-05-05 20:02:00,66.9,39.8,30.69,NNW,344,3.0,6.0,37,0.00,,,0.00,79.00,VWS V14.00,2013-05-06 02:02:00,
2013-05-05 20:07:00,65.9,40.9,30.65,NNW,345,4.0,7.0,40,0.00,,,0.00,65.00,VWS V14.00,2013-05-06 02:07:00,
2013-05-05 20:12:00,65.1,39.5,30.66,NNW,345,5.0,7.0,39,0.00,,,0.00,54.00,VWS V14.00,2013-05-06 02:12:00,
2013-05-05 20:17:00,64.3,40.7,30.66,NNW,345,4.0,7.0,42,0.00,,,0.00,44.00,VWS V14.00,2013-05-06 02:17:00,
2013-05-05 20:22:00,63.6,39.5,30.67,NNW,346,7.0,7.0,41,0.00,,,0.00,35.00,VWS V14.00,2013-05-06 02:22:00,
2013-05-05 20:27:00,63.1,39.0,30.67,North,355,5.0,10.0,41,0.00,,,0.00,18.00,VWS V14.00,2013-05-06 02:27:00,
2013-05-05 20:32:00,62.7,38.0,30.68,North,5,3.0,10.0,40,0.00,,,0.00,12.00,VWS V14.00,2013-05-06 02:32:00,
2013-05-05 20:37:00,62.4,37.8,30.68,NNE,17,2.0,2.0,40,0.00,,,0.00,11.00,VWS V14.00,2013-05-06 02:37:00,
2013-05-05 20:42:00,62.2,37.6,30.68,NNE,17,0.0,2.0,40,0.00,,,0.00,7.00,VWS V14.00,2013-05-06 02:42:00,
2013-05-05 20:47:00,62.0,37.4,30.68,North,360,3.0,6.0,40,0.00,,,0.00,5.00,VWS V14.00,2013-05-06 02:47:00,
2013-05-05 20:52:00,61.4,38.1,30.69,North,355,5.0,7.0,42,0.00,,,0.00,0.00,VWS V14.00,2013-05-06 02:52:00,
2013-05-05 20:57:00,60.8,37.0,30.69,North,360,5.0,10.0,41,0.00,,,0.00,0.00,VWS V14.00,2013-05-06 02:57:00,
2013-05-05 21:02:00,60.7,37.5,30.69,North,9,0.0,10.0,42,0.00,,,0.00,0.00,VWS V14.00,2013-05-06 03:02:00,
2013-05-05 21:07:00,60.5,37.3,30.66,North,9,2.0,3.0,42,0.00,,,0.00,0.00,VWS V14.00,2013-05-06 03:07:00,
2013-05-05 21:12:00,60.3,37.1,30.67,North,9,2.0,3.0,42,0.00,,,0.00,0.00,VWS V14.00,2013-05-06 03:12:00,
2013-05-05 21:17:00,60.0,38.6,30.67,North,9,0.0,4.0,45,0.00,,,0.00,0.00,VWS V14.00,2013-05-06 03:17:00,
2013-05-05 21:22:00,59.5,38.2,30.67,North,9,0.0,0.0,45,0.00,,,0.00,0.00,VWS V14.00,2013-05-06 03:22:00,
2013-05-05 21:27:00,59.0,38.3,30.68,North,9,0.0,3.0,46,0.00,,,0.00,0.00,VWS V14.00,2013-05-06 03:27:00,
2013-05-05 21:32:00,58.2,38.6,30.68,North,9,0.0,3.0,48,0.00,,,0.00,0.00,VWS V14.00,2013-05-06 03:32:00,
2013-05-05 21:37:00,57.2,38.8,30.70,North,9,0.0,2.0,50,0.00,,,0.00,0.00,VWS V14.00,2013-05-06 03:37:00,
2013-05-05 21:42:00,56.2,38.3,30.70,North,9,0.0,2.0,51,0.00,,,0.00,0.00,VWS V14.00,2013-05-06 03:42:00,
2013-05-05 21:47:00,55.7,39.3,30.70,North,9,0.0,2.0,54,0.00,,,0.00,0.00,VWS V14.00,2013-05-06 03:47:00,
2013-05-05 21:52:00,55.1,37.8,30.71,North,9,0.0,0.0,52,0.00,,,0.00,0.00,VWS V14.00,2013-05-06 03:52:00,
2013-05-05 21:57:00,54.7,39.3,30.71,North,9,0.0,0.0,56,0.00,,,0.00,0.00,VWS V14.00,2013-05-06 03:57:00,
2013-05-05 22:01:00,54.5,38.2,30.72,North,9,0.0,0.0,54,0.00,,,0.00,0.00,VWS V14.00,2013-05-06 04:01:00,
2013-05-05 22:02:00,54.4,38.6,30.72,North,9,0.0,0.0,55,0.00,,,0.00,0.00,VWS V14.00,2013-05-06 04:02:00,
2013-05-05 22:07:00,54.0,37.8,30.71,North,9,0.0,0.0,54,0.00,,,0.00,0.00,VWS V14.00,2013-05-06 04:07:00,
2013-05-05 22:12:00,53.7,37.9,30.71,North,9,0.0,1.0,55,0.00,,,0.00,0.00,VWS V14.00,2013-05-06 04:12:00,
2013-05-05 22:17:00,53.2,38.4,30.71,North,9,4.0,4.0,57,0.00,,,0.00,0.00,VWS V14.00,2013-05-06 04:17:00,
2013-05-05 22:22:00,52.5,38.2,30.71,SSE,155,0.0,0.0,58,0.00,,,0.00,0.00,VWS V14.00,2013-05-06 04:22:00,
2013-05-05 22:27:00,52.1,38.2,30.72,SSE,155,0.0,0.0,59,0.00,,,0.00,0.00,VWS V14.00,2013-05-06 04:27:00,
2013-05-05 22:32:00,51.6,37.3,30.72,SSE,155,0.0,1.0,58,0.00,,,0.00,0.00,VWS V14.00,2013-05-06 04:32:00,
2013-05-05 22:37:00,51.5,37.2,30.72,SSE,155,1.0,1.0,58,0.00,,,0.00,0.00,VWS V14.00,2013-05-06 04:37:00,
2013-05-05 22:42:00,51.4,37.6,30.72,SSE,155,0.0,3.0,59,0.00,,,0.00,0.00,VWS V14.00,2013-05-06 04:42:00,
2013-05-05 22:47:00,51.2,37.0,30.73,SSE,155,0.0,3.0,58,0.00,,,0.00,0.00,VWS V14.00,2013-05-06 04:47:00,
2013-05-05 22:52:00,51.2,37.8,30.73,SSE,155,0.0,0.0,60,0.00,,,0.00,0.00,VWS V14.00,2013-05-06 04:52:00,
2013-05-05 22:57:00,50.9,36.7,30.73,SSE,155,0.0,0.0,58,0.00,,,0.00,0.00,VWS V14.00,2013-05-06 04:57:00,
2013-05-05 23:02:00,50.6,36.4,30.73,SSE,155,0.0,0.0,58,0.00,,,0.00,0.00,VWS V14.00,2013-05-06 05:02:00,
2013-05-05 23:07:00,50.4,37.0,30.72,SSE,155,0.0,1.0,60,0.00,,,0.00,0.00,VWS V14.00,2013-05-06 05:07:00,
2013-05-05 23:12:00,50.3,37.4,30.72,SSE,155,0.0,1.0,61,0.00,,,0.00,0.00,VWS V14.00,2013-05-06 05:12:00,
2013-05-05 23:17:00,50.0,36.7,30.73,SSE,155,1.0,2.0,60,0.00,,,0.00,0.00,VWS V14.00,2013-05-06 05:17:00,
2013-05-05 23:22:00,49.7,36.4,30.73,SSE,155,0.0,0.0,60,0.00,,,0.00,0.00,VWS V14.00,2013-05-06 05:22:00,
2013-05-05 23:27:00,49.6,36.7,30.73,SSE,155,0.0,0.0,61,0.00,,,0.00,0.00,VWS V14.00,2013-05-06 05:27:00,
2013-05-05 23:32:00,49.5,36.6,30.73,SSE,155,0.0,0.0,61,0.00,,,0.00,0.00,VWS V14.00,2013-05-06 05:32:00,
2013-05-05 23:37:00,49.4,36.9,30.74,SSE,155,0.0,0.0,62,0.00,,,0.00,0.00,VWS V14.00,2013-05-06 05:37:00,
2013-05-05 23:42:00,49.2,36.8,30.74,SSE,155,0.0,0.0,62,0.00,,,0.00,0.00,VWS V14.00,2013-05-06 05:42:00,
2013-05-05 23:47:00,49.2,37.2,30.74,SSE,155,0.0,1.0,63,0.00,,,0.00,0.00,VWS V14.00,2013-05-06 05:47:00,
2013-05-05 23:52:00,49.1,37.5,30.74,SSE,155,1.0,2.0,64,0.00,,,0.00,0.00,VWS V14.00,2013-05-06 05:52:00,
2013-05-05 23:57:00,49.0,37.8,30.74,SSE,155,0.0,2.0,65,0.00,,,0.00,0.00,VWS V14.00,2013-05-06 05:57:00,